Theta_e
292 288 293 295 296 295 294 294 294 293 294 293 290 291 294 293 288 287 292 291 289 291 288 289 290 290 292 292 292 291 289 287 286 285 285 286 286 285 285 287 286 287 289 289 288 287 287 287 288 288 288 288 288 288 289 289 289 290 291 289 289 290 290 291 293 295 296 296 296 296 296 298 298 299 299 299 298 298 297 299 300 301 302 302 297 296 294
292 289 290 294 294 294 294 293 293 294 294 294 294 294 295 294 292 294 294 291 293 296 295 292 292 292 293 291 289 287 289 289 289 287 287 287 287 286 287 287 287 287 288 287 288 287 288 288 289 289 289 289 289 289 290 289 289 291 290 289 289 290 290 291 294 294 294 294 294 295 295 296 298 297 297 297 296 295 296 296 295 293 294 295 297 298 296
289 291 289 291 294 293 291 293 293 294 294 294 295 295 295 294 294 294 294 291 291 297 297 297 295 291 291 289 290 290 289 289 289 291 291 291 290 288 288 287 288 287 287 287 286 287 288 289 289 290 291 290 289 289 289 289 289 290 290 289 290 290 291 291 293 294 294 293 294 294 295 296 296 295 296 295 295 295 294 293 293 292 293 294 294 294 296
287 290 289 289 290 291 291 290 291 292 292 290 293 292 295 293 292 293 293 291 291 295 294 295 297 295 297 297 292 292 293 292 291 291 293 293 293 291 290 290 288 287 287 287 287 288 288 289 289 290 290 290 289 291 290 289 289 290 290 290 291 291 291 292 293 294 294 293 293 294 294 294 294 294 294 293 294 294 293 292 292 291 292 294 293 292 293
286 290 290 288 287 287 286 287 291 293 294 295 296 297 297 296 296 293 290 291 298 294 294 295 296 297 298 301 298 295 295 294 293 294 295 295 293 293 293 293 292 293 292 291 291 291 290 292 293 292 291 290 292 293 291 289 288 290 290 290 291 291 292 293 294 294 294 293 293 293 293 293 293 293 293 293 293 292 293 292 291 292 294 293 293 292 293
287 288 287 288 286 281 283 295 298 297 294 294 292 293 295 297 297 296 298 294 292 293 296 297 297 296 299 301 301 297 298 297 296 296 295 295 296 295 295 294 295 296 294 293 292 293 295 296 294 291 290 292 294 292 290 288 289 290 291 291 291 292 293 293 294 294 294 294 293 293 293 293 292 293 293 294 293 292 292 290 292 292 291 292 292 293 293
287 286 287 284 279 282 294 298 299 299 298 297 295 295 296 296 297 297 297 297 292 294 296 296 297 298 299 301 301 296 297 299 300 300 298 297 297 298 298 298 296 295 295 295 295 294 295 294 292 291 291 291 291 289 288 288 288 290 290 291 291 292 293 294 294 294 294 293 293 293 293 292 292 293 293 292 291 291 292 291 291 291 291 291 291 291 291
286 284 285 278 281 290 295 296 297 299 299 297 295 293 296 297 297 298 297 298 298 292 292 293 295 295 295 296 297 298 299 299 300 299 299 297 295 295 298 299 301 301 301 300 300 300 297 294 292 291 294 292 290 290 288 289 288 289 290 291 291 292 293 293 294 294 293 293 293 293 292 292 292 292 292 292 291 290 291 291 291 290 290 291 290 290 290
285 284 285 285 289 288 290 292 293 295 293 294 293 288 293 298 298 298 297 298 298 297 296 290 289 290 292 293 298 302 302 301 299 299 299 298 297 298 299 299 300 301 301 301 301 298 296 296 294 293 292 290 290 289 287 288 288 288 289 290 290 291 292 293 293 294 293 293 293 293 292 291 291 292 291 291 291 290 290 290 290 290 290 290 290 290 289
288 285 283 284 284 282 287 294 298 300 300 300 296 290 291 295 298 299 298 297 298 299 293 291 289 291 292 292 296 301 302 298 297 296 297 297 299 300 301 300 299 299 300 299 296 295 295 294 293 293 292 289 289 289 288 287 287 287 288 289 291 291 291 292 293 293 293 293 292 292 291 291 292 292 292 291 291 290 291 290 289 290 291 290 289 289 289
285 284 283 282 281 285 294 295 295 296 296 296 296 291 288 296 297 299 299 299 299 298 291 290 292 293 290 294 298 302 296 296 299 299 298 299 300 301 301 300 300 301 300 297 295 294 293 294 296 292 290 288 288 289 289 288 287 288 288 290 290 291 292 292 292 292 293 293 292 292 291 291 291 290 290 290 290 289 290 290 290 289 289 290 289 289 289
285 285 284 283 286 287 290 291 292 296 297 299 294 284 285 297 298 298 299 298 299 298 293 292 294 294 291 294 299 295 295 297 297 299 299 299 298 298 298 298 298 297 294 294 295 294 293 295 294 291 288 287 288 289 289 288 287 288 290 291 292 292 292 291 290 291 291 291 292 291 291 290 290 290 289 289 289 289 289 290 290 289 289 289 288 288 288
286 286 285 287 287 289 288 291 294 297 299 297 287 282 291 297 296 298 298 298 298 296 292 294 294 297 301 302 296 294 294 296 296 296 295 294 295 296 294 294 292 293 291 292 294 293 294 294 293 290 287 288 288 289 289 288 288 290 292 293 292 291 289 289 289 290 290 290 290 290 290 290 289 289 289 289 289 288 289 289 289 289 288 288 288 288 288
285 286 285 285 288 290 289 289 296 298 295 286 285 295 292 292 295 297 298 297 295 297 295 296 299 301 301 302 293 289 291 293 292 289 287 288 288 288 289 289 289 290 289 289 289 289 290 290 290 288 287 288 288 288 288 288 290 292 292 292 290 289 289 289 289 289 289 290 290 290 289 289 289 288 288 288 288 288 289 289 288 288 287 288 289 288 288
285 286 284 284 281 288 289 292 292 295 289 287 288 284 288 287 287 290 293 295 294 297 296 297 299 299 300 299 296 289 287 288 290 289 289 291 291 292 292 291 290 289 289 289 290 290 290 288 287 287 287 287 288 287 288 289 291 291 291 289 289 288 288 288 288 288 288 289 289 289 289 289 289 288 288 288 288 288 288 288 288 288 287 287 288 288 287
284 284 282 283 287 286 287 290 288 287 287 289 287 285 288 288 287 287 288 290 293 297 298 297 297 297 293 291 288 290 288 289 288 286 286 286 286 287 287 287 287 286 287 288 289 288 287 287 286 285 287 287 287 287 288 291 290 289 288 287 288 288 287 288 288 288 288 288 288 289 289 288 288 288 287 288 288 288 288 289 289 288 289 288 288 288 288
287 286 287 289 287 287 289 288 289 290 291 288 286 286 288 288 288 285 287 288 287 287 290 287 289 292 290 292 290 293 292 289 287 287 288 287 287 287 287 288 286 285 287 287 287 287 287 286 285 284 285 287 287 287 289 289 288 287 287 286 287 287 287 287 287 287 287 287 288 288 288 288 288 288 287 287 288 288 288 289 289 289 289 288 288 289 289
287 289 289 290 287 287 288 290 289 290 290 290 289 289 289 287 285 286 286 286 286 287 288 291 288 288 287 287 286 286 285 285 284 283 284 285 283 283 283 284 284 284 283 282 283 285 287 286 284 283 284 286 287 288 288 288 287 286 286 286 286 287 287 287 287 287 287 287 287 288 288 288 288 289 288 288 288 288 288 289 289 289 290 289 289 289 289
288 285 289 289 289 288 289 291 291 291 291 290 289 289 288 287 286 288 286 286 286 286 287 287 288 287 285 287 285 284 283 284 284 283 284 285 284 284 286 286 284 283 282 285 285 285 286 285 284 282 281 284 286 287 286 284 283 284 285 286 287 286 286 286 286 286 287 287 287 287 287 288 289 289 289 288 288 288 288 289 289 289 290 289 289 289 289
286 285 287 288 289 289 290 291 290 289 290 290 290 289 288 287 288 287 287 287 288 287 288 286 287 288 286 287 288 288 287 285 285 284 284 284 285 287 284 284 281 281 282 283 284 284 286 287 283 281 280 281 283 283 283 282 281 282 284 285 286 286 286 286 286 286 287 286 287 287 287 288 288 288 289 289 288 289 288 289 289 289 290 289 289 289 290
286 287 287 287 288 288 288 288 289 290 290 290 290 290 289 289 288 287 287 287 286 287 287 286 287 288 289 287 285 287 288 288 288 287 286 285 284 284 285 286 282 284 283 283 284 283 285 285 282 281 280 280 280 280 282 279 279 282 285 284 285 284 285 285 286 286 286 286 287 287 287 288 288 289 289 288 289 289 289 290 291 290 290 290 290 290 291
283 282 285 286 284 284 286 287 287 288 290 290 289 289 288 288 287 287 286 287 285 286 286 286 287 288 288 288 286 287 287 287 287 287 286 286 284 284 283 282 282 282 281 281 282 283 284 282 280 280 279 278 278 277 277 278 278 283 284 283 282 284 284 284 284 284 285 286 287 287 287 287 287 288 287 288 289 289 289 288 288 289 289 290 291 291 290
282 286 287 288 287 286 288 288 288 288 288 288 287 286 286 287 287 287 286 286 287 286 286 285 286 288 288 288 286 286 288 289 288 286 284 285 286 287 284 283 285 284 284 282 280 282 283 280 279 278 278 276 275 276 275 276 276 280 280 283 284 284 284 284 284 285 285 286 286 287 287 287 287 287 288 288 287 288 289 288 288 288 288 288 289 289 290
287 288 287 287 286 285 287 287 287 288 288 288 287 287 287 286 287 287 287 286 286 286 285 285 286 287 287 288 287 287 288 288 288 287 284 282 282 282 281 281 281 281 282 283 283 284 283 281 280 279 277 275 273 273 272 272 274 277 279 282 284 285 284 283 284 285 285 286 286 287 287 287 287 287 287 287 287 286 287 287 287 288 288 288 288 288 288
286 287 287 287 288 287 287 286 286 287 287 287 286 286 286 286 287 287 287 287 287 287 287 287 287 287 287 287 287 287 287 287 287 286 284 283 283 282 283 280 280 281 283 282 281 280 280 279 278 277 276 275 273 273 273 273 274 276 277 279 282 282 282 283 283 285 285 286 286 286 286 286 287 287 287 287 285 285 284 285 286 287 288 288 288 288 288
277 277 281 285 286 285 285 285 285 284 283 283 284 284 285 285 286 286 286 286 287 287 287 287 287 288 287 287 287 287 286 287 287 286 284 285 284 282 284 283 283 280 279 279 278 278 277 276 275 274 275 274 274 274 275 276 276 277 278 278 279 280 280 281 282 284 285 286 286 286 287 287 287 287 287 287 287 286 283 282 283 284 285 286 287 287 288
274 275 279 282 281 281 281 280 280 280 278 279 280 281 281 283 285 285 285 286 286 286 286 286 286 286 287 287 287 287 286 287 286 286 286 286 286 287 285 281 278 276 275 276 277 275 273 273 273 273 274 273 273 273 274 275 276 278 279 280 280 278 278 280 281 283 284 285 286 286 287 287 287 286 286 286 286 285 284 283 282 282 281 282 284 286 286
272 272 275 277 276 276 277 280 279 277 277 276 277 278 279 280 281 282 282 282 283 284 285 285 285 285 285 286 286 286 286 285 285 285 285 285 285 284 282 280 278 277 275 274 273 272 272 273 274 274 275 274 273 273 273 274 275 277 279 280 281 282 281 280 280 281 283 285 286 286 287 287 287 286 286 285 285 284 283 283 282 280 277 277 278 282 284
268 269 271 275 274 275 277 278 276 276 275 276 276 277 278 277 278 279 279 280 280 282 282 283 283 283 283 284 285 284 284 283 283 283 283 283 282 281 279 277 276 276 277 275 273 272 273 274 274 275 275 273 271 273 273 273 274 276 278 279 281 282 283 283 283 284 284 285 285 286 286 285 285 285 284 284 283 283 282 281 280 279 278 277 279 280 281
266 267 269 274 272 273 274 274 273 273 273 274 273 274 276 275 275 276 277 277 279 279 280 280 280 281 282 282 283 282 281 281 281 281 282 281 281 279 276 275 276 279 278 277 275 272 272 273 273 273 275 273 271 271 272 273 274 276 277 278 279 281 282 283 283 283 283 284 284 283 284 284 284 284 283 283 282 281 280 279 278 276 276 277 278 279 278
263 265 269 271 270 271 272 272 272 271 271 271 271 272 273 273 273 274 274 275 276 277 277 277 278 278 280 281 281 280 280 280 280 280 280 281 280 278 273 272 276 279 279 277 274 272 271 271 272 272 272 268 268 270 271 273 274 275 277 277 278 279 279 280 281 282 283 282 281 282 282 282 282 282 281 280 280 279 279 277 276 276 276 277 278 277 277
261 267 271 270 267 268 269 269 268 268 267 268 269 269 270 270 270 271 272 273 273 274 274 275 275 276 278 278 278 278 278 278 279 279 279 280 279 275 271 269 270 270 269 269 270 270 271 271 271 271 267 266 267 269 270 272 273 275 276 276 277 278 278 279 280 281 281 280 280 280 280 280 280 280 280 279 279 278 277 276 275 275 275 276 276 275 275
263 268 268 264 262 264 265 264 264 264 265 265 266 268 269 269 270 270 270 271 271 271 272 272 274 275 275 275 275 276 276 277 278 278 278 279 280 278 272 268 267 267 267 266 266 268 269 269 271 270 268 268 267 268 269 270 272 274 276 277 277 277 276 278 279 280 279 279 279 280 280 279 280 279 279 278 278 277 276 276 275 274 274 275 274 273 273
257 260 260 260 260 260 260 261 262 262 263 264 265 265 266 267 268 268 268 269 269 270 270 271 272 272 272 273 273 274 275 275 276 277 278 279 279 278 275 269 266 265 265 266 266 267 268 268 268 267 267 267 267 267 268 270 272 273 275 276 276 277 276 277 277 278 278 277 278 277 278 277 278 278 278 277 277 276 275 274 273 273 273 271 271 271 273
257 257 258 259 260 260 261 260 260 260 260 260 261 262 264 265 265 266 267 267 267 268 269 270 270 270 271 271 271 272 273 273 274 275 275 276 276 276 272 270 269 267 267 267 267 267 268 267 266 265 265 266 266 266 268 269 271 273 274 275 275 276 276 276 276 276 277 277 277 277 277 277 277 275 275 276 276 275 274 273 272 272 271 270 269 270 271
255 255 256 257 257 258 258 258 258 259 259 259 260 260 261 262 263 263 264 265 267 268 268 268 269 269 269 269 270 270 271 272 272 273 274 274 274 272 270 268 268 269 269 270 269 268 267 265 265 266 266 266 267 267 267 268 270 272 274 275 274 274 274 274 274 274 274 275 274 275 275 274 274 274 274 274 274 273 272 271 271 270 270 269 269 269 268
254 254 254 255 256 256 256 257 257 257 258 258 258 259 260 261 261 263 264 264 265 266 266 267 267 267 267 268 269 270 270 271 272 273 273 274 272 270 269 269 268 268 268 269 268 264 264 265 265 265 265 266 266 267 268 267 269 271 273 273 274 273 273 272 272 272 272 272 273 273 272 272 272 272 272 272 272 271 271 270 269 268 268 268 267 267 266
253 253 253 254 255 255 255 256 257 257 257 257 258 259 260 260 261 262 262 263 263 264 265 265 265 266 267 267 268 268 269 271 272 272 273 272 271 269 268 268 269 269 269 269 265 262 263 264 264 264 265 265 266 266 267 267 267 270 272 273 273 272 272 271 271 270 270 271 270 271 271 272 271 271 271 271 271 270 270 269 268 267 267 267 266 266 266
252 253 253 253 254 254 254 255 256 256 257 256 257 258 260 261 261 261 261 261 262 263 263 263 264 264 264 265 266 268 269 271 271 271 270 270 269 267 267 267 265 263 264 264 262 263 263 264 263 263 264 264 265 266 266 267 267 270 271 272 272 271 271 271 270 270 270 270 270 270 271 270 271 270 270 270 270 269 268 268 267 266 265 265 266 265 265
251 251 252 253 252 253 254 254 255 256 257 258 258 258 259 260 260 260 260 260 261 262 262 262 262 262 263 264 265 266 268 270 270 269 268 267 266 265 266 266 263 263 263 262 263 263 263 263 263 262 263 264 265 266 267 268 268 270 270 271 271 270 270 270 270 270 270 270 270 269 270 269 269 269 269 268 268 268 267 266 266 266 265 265 264 264 264
251 252 252 253 253 253 253 254 254 255 256 257 257 258 259 259 259 259 258 259 260 261 261 261 261 262 263 264 265 267 268 269 268 267 266 265 264 265 265 266 265 260 260 262 262 262 263 263 263 263 263 265 265 266 267 268 269 270 270 270 270 270 270 270 269 269 269 269 269 269 269 268 268 268 267 267 267 267 266 266 265 265 264 264 264 263 263
250 251 252 252 252 252 253 253 254 254 255 256 257 257 258 258 258 258 258 259 259 259 260 260 262 263 264 265 266 267 267 267 266 264 263 262 262 263 263 264 262 258 261 262 262 262 262 262 263 263 263 264 265 266 266 268 269 270 270 270 270 269 269 269 269 269 269 269 269 268 268 268 267 267 266 266 265 265 265 265 264 264 264 263 263 263 263
249 249 250 250 251 251 251 252 253 253 254 255 255 255 256 257 257 257 257 257 257 257 258 260 261 261 262 262 263 263 264 264 262 262 262 261 261 260 260 260 261 260 262 261 262 261 261 262 262 262 263 263 264 265 266 268 269 269 269 268 268 268 268 268 268 268 267 267 267 267 267 267 266 266 265 265 264 264 264 263 263 263 263 263 262 262 262
249 249 249 250 251 252 252 251 251 252 252 253 255 254 254 253 254 254 254 255 255 256 256 256 257 257 258 259 259 260 260 260 259 260 261 261 262 260 261 258 260 261 261 261 261 260 261 261 261 262 262 263 264 264 266 267 267 267 267 267 267 267 266 266 266 267 266 266 266 266 266 265 265 265 265 264 263 263 263 263 262 262 262 261 261 261 261
248 249 250 250 250 251 251 251 251 251 252 253 253 252 253 251 251 252 253 254 254 255 255 254 254 255 255 256 258 259 258 258 257 258 258 258 260 259 261 258 259 260 260 260 260 260 260 260 261 262 262 263 263 263 264 264 265 265 265 265 266 266 266 265 265 265 265 265 265 265 265 264 264 264 263 263 263 262 262 261 261 261 261 260 260 260 260
248 249 249 251 250 249 250 250 251 251 251 251 251 252 253 252 252 253 252 252 252 253 253 254 254 254 255 255 256 258 260 258 258 258 257 257 256 257 260 258 259 259 259 259 259 259 259 260 260 261 261 262 262 262 262 262 262 263 263 263 263 263 263 263 263 262 263 262 262 262 262 262 262 262 262 262 262 261 261 261 260 261 261 260 260 260 260
248 249 249 248 248 250 250 250 251 251 250 251 251 252 254 253 254 253 252 253 252 253 253 253 254 254 255 255 255 255 255 258 258 258 257 257 259 258 258 259 259 258 258 258 258 258 259 259 259 260 260 260 261 261 261 261 261 261 261 261 261 261 261 261 261 261 261 261 261 261 261 261 261 261 261 261 261 260 261 260 260 260 260 260 260 260 259
250 250 252 251 252 253 252 252 252 252 252 252 253 253 254 255 256 256 256 257 257 256 255 255 255 255 255 255 256 256 256 255 255 257 258 255 257 258 258 257 258 258 258 258 257 258 258 258 259 259 259 259 259 259 259 259 259 259 259 259 259 260 260 260 260 260 260 260 260 260 260 260 260 260 260 260 260 260 260 260 260 259 259 259 259 259 259
252 252 253 254 253 254 254 253 253 253 252 253 253 253 255 255 256 256 256 256 256 256 256 255 255 255 255 256 256 256 256 257 256 254 257 257 256 256 257 257 257 257 257 257 256 256 257 257 257 258 258 258 258 258 258 258 258 258 258 258 258 258 258 258 259 259 259 259 259 259 259 259 259 259 259 259 259 259 259 259 259 259 259 259 259 259 259
253 254 253 253 253 253 253 253 252 252 253 253 253 254 254 255 254 255 255 254 255 255 256 256 255 255 255 255 256 256 256 256 256 257 256 256 256 256 256 256 256 257 256 256 256 256 256 256 256 257 257 257 257 257 257 257 257 257 257 257 257 257 258 258 258 258 258 258 258 258 258 258 258 258 258 258 258 258 258 258 259 258 258 258 258 258 258
253 254 254 253 253 253 254 254 253 253 253 253 253 254 254 253 253 254 254 254 254 253 254 255 256 255 254 254 255 255 256 256 256 256 256 256 256 256 256 256 256 256 256 255 255 255 255 255 255 256 256 256 256 256 256 256 256 256 256 256 256 257 257 257 257 257 257 257 257 257 257 257 258 258 258 258 258 257 257 257 257 258 258 258 258 258 258
254 254 255 254 253 253 254 254 254 253 253 253 253 253 253 253 253 253 254 254 253 253 253 253 254 255 255 254 255 255 255 255 255 255 255 255 255 255 256 256 255 255 255 255 255 255 255 255 255 255 255 255 255 255 255 255 255 255 255 256 256 256 256 256 256 256 257 257 257 257 257 257 257 257 257 257 257 257 257 257 257 257 257 257 257 257 257
Wind_Speed
8 5 3 10 13 14 17 20 21 20 18 17 18 22 26 14 10 19 26 9 9 9 6 8 8 6 7 6 9 10 5 2 3 3 4 3 4 5 4 4 3 3 3 3 3 5 6 5 7 7 6 6 6 6 6 5 5 6 5 6 7 8 8 10 11 8 6 6 6 6 5 5 6 7 7 7 6 6 7 7 6 7 7 7 7 6 4
12 3 1 8 16 14 12 13 14 16 18 21 24 26 27 20 18 25 18 8 20 17 13 10 10 9 7 5 1 1 1 4 4 3 4 4 4 3 3 4 4 4 5 5 5 5 6 6 7 7 7 7 7 7 7 6 7 6 7 8 9 10 11 12 8 6 6 6 6 5 6 7 7 7 6 6 7 6 7 6 6 5 5 5 7 7 6
11 12 3 2 12 13 13 14 14 15 15 17 20 22 21 15 19 25 21 13 18 13 10 10 4 2 0 2 4 4 4 3 4 4 5 6 5 4 4 5 6 5 5 5 5 5 7 8 9 9 8 6 6 7 7 6 7 7 8 10 10 10 13 10 7 6 6 6 6 7 8 7 6 7 7 6 7 7 6 6 6 6 6 6 6 6 6
8 10 11 5 7 11 14 11 13 15 17 18 20 21 24 20 26 31 24 17 19 10 8 5 8 5 7 14 9 6 5 6 6 5 7 8 6 4 5 5 5 6 6 6 6 7 7 8 8 8 7 6 5 9 5 7 8 7 8 9 11 11 10 8 8 8 7 6 7 8 7 8 7 7 6 7 7 7 6 6 6 5 5 6 5 5 5
10 13 13 9 4 3 7 13 18 23 25 26 27 28 27 21 25 20 15 24 25 3 7 11 14 15 15 21 15 12 10 8 8 9 9 7 5 6 6 6 6 6 7 7 7 7 7 9 9 7 6 6 8 7 5 7 6 7 8 10 10 10 8 8 9 8 7 8 8 8 8 7 7 7 8 8 8 8 9 6 5 7 7 6 6 5 6
10 8 5 6 7 15 16 14 25 28 27 28 26 24 27 23 16 17 18 8 7 13 17 20 16 13 17 21 13 4 8 9 11 10 6 7 8 6 6 7 7 8 6 6 7 9 9 10 7 4 6 7 8 3 4 5 7 7 7 8 9 9 8 9 8 8 9 9 9 9 8 8 7 8 9 10 7 6 6 6 8 7 6 7 6 7 7
9 8 11 8 17 15 13 15 14 18 21 19 21 20 15 10 14 21 24 20 11 5 5 6 8 12 14 13 11 5 10 12 12 15 12 11 9 9 8 9 7 8 9 8 9 9 10 9 7 5 6 7 6 2 4 4 5 6 6 6 8 9 9 9 8 9 10 10 10 9 9 8 8 9 10 8 8 8 8 9 9 9 9 8 8 8 7
4 6 10 9 11 7 7 4 9 8 8 8 8 19 22 20 24 29 31 29 12 1 5 6 3 5 6 6 10 13 14 13 13 11 11 8 6 8 10 11 13 13 12 12 11 10 5 5 6 6 8 5 5 6 4 5 5 5 5 7 8 8 10 10 10 10 11 11 10 9 9 9 10 11 10 10 10 8 7 7 6 6 6 8 9 9 8
11 6 11 13 5 3 3 9 9 13 17 20 23 22 28 28 21 14 17 17 10 15 9 5 3 3 2 4 13 20 21 17 10 8 6 6 9 11 11 10 14 15 13 12 12 7 7 6 5 6 7 4 5 4 5 6 6 5 6 8 10 10 11 10 11 11 11 11 11 10 10 10 11 11 11 11 9 7 8 8 9 9 10 9 7 9 9
4 7 8 5 9 16 11 13 14 21 21 16 5 2 20 3 13 19 22 25 20 18 6 8 5 5 2 8 17 22 20 2 5 7 7 7 11 13 14 12 10 10 11 9 7 5 6 6 7 7 5 2 3 4 6 5 6 6 7 11 11 10 11 12 12 11 10 11 11 11 10 13 13 11 8 6 8 7 10 10 10 10 8 7 7 8 10
3 5 7 8 11 15 17 16 10 7 7 14 11 6 20 15 16 20 23 26 21 15 10 8 10 8 9 18 21 17 4 8 11 11 12 14 15 15 12 10 13 14 12 7 5 3 5 7 10 5 1 2 4 6 6 6 6 7 10 12 11 12 14 12 9 8 9 10 10 10 11 12 9 9 9 9 5 5 7 6 6 5 7 7 7 7 8
3 4 8 9 4 9 6 3 9 14 13 13 11 13 16 24 16 15 16 22 21 13 13 13 13 14 16 21 18 5 6 9 9 12 13 11 9 9 11 10 9 7 4 5 7 6 6 10 8 5 3 4 5 7 8 5 6 9 12 14 14 10 8 5 6 7 8 9 9 10 11 8 7 7 5 5 7 7 6 5 5 5 6 6 8 7 6
13 12 7 4 7 4 1 6 10 15 16 15 14 16 20 11 9 14 14 18 11 11 13 14 15 19 22 20 3 5 5 5 6 5 2 2 5 7 4 6 4 3 3 3 6 7 8 9 8 5 4 5 7 8 7 6 10 12 14 12 8 6 4 5 7 8 8 10 11 10 8 8 6 5 6 7 6 7 7 5 5 6 8 6 6 6 6
11 10 12 9 6 4 1 2 12 14 12 11 17 10 5 4 2 8 13 12 10 16 17 16 16 19 18 16 5 2 2 4 1 1 1 2 0 2 4 5 4 5 4 5 6 8 8 7 7 4 4 6 7 7 7 11 14 14 12 9 6 4 6 6 7 8 10 9 9 9 7 7 8 8 6 6 6 7 6 7 8 8 7 7 7 6 6
0 3 9 4 13 2 6 2 1 2 5 2 5 9 8 9 9 3 0 5 8 11 13 17 19 16 15 11 5 2 2 3 3 4 4 3 3 5 4 3 2 1 2 5 8 7 5 5 5 5 5 7 8 6 10 14 12 11 9 4 4 5 6 7 8 9 9 10 9 7 8 9 8 8 7 8 8 8 8 8 9 9 9 8 7 7 6
5 6 9 6 1 3 5 4 3 2 1 2 5 2 6 8 8 9 7 4 2 6 11 14 15 10 4 6 6 3 2 2 3 4 4 4 4 5 4 4 4 2 4 4 7 5 3 4 4 4 6 7 7 8 14 14 10 6 2 4 4 5 6 7 7 8 7 8 7 7 8 8 9 9 9 9 8 9 9 8 8 9 8 7 7 8 9
4 3 2 0 3 3 5 3 2 2 3 3 5 1 6 9 10 6 8 9 8 8 6 8 5 2 2 1 0 1 0 1 2 4 5 4 5 5 6 8 5 4 5 7 6 9 2 3 4 5 5 7 7 8 9 5 5 5 5 4 5 6 7 7 6 6 6 7 8 8 8 9 10 9 9 9 9 8 9 9 9 9 8 8 9 8 7
2 3 1 0 5 4 5 4 5 8 8 6 6 9 11 9 5 6 6 6 8 9 7 5 5 5 4 3 3 2 2 3 4 4 5 5 4 4 4 5 5 4 4 4 4 8 8 1 1 4 6 7 8 8 2 3 5 4 4 5 6 8 7 6 7 6 7 7 7 7 8 7 8 7 9 9 9 8 9 9 10 10 9 8 9 8 9
4 4 4 9 5 4 7 6 6 8 10 10 8 10 10 9 10 11 10 8 7 8 9 10 8 8 6 6 4 3 2 3 3 3 4 4 4 4 5 2 1 4 4 6 7 5 9 2 2 1 4 5 8 6 6 4 3 3 4 5 6 6 7 6 5 7 8 7 7 7 7 7 7 7 7 8 8 8 9 10 10 10 9 10 10 9 10
3 3 3 2 1 6 6 9 11 12 12 10 9 7 6 7 8 8 9 9 11 10 11 8 8 8 8 9 10 8 7 6 6 7 7 7 9 7 4 4 3 3 3 6 8 8 10 8 4 4 2 3 5 5 5 4 4 3 4 5 6 7 7 6 6 7 7 8 9 7 8 9 9 9 8 9 10 11 12 12 11 11 10 11 12 12 11
3 2 3 5 3 10 13 13 13 9 8 9 11 12 12 12 12 11 9 7 7 9 8 7 7 8 8 6 5 7 8 8 7 8 7 7 6 8 10 9 7 7 6 7 7 7 10 7 6 5 5 5 6 6 6 4 3 4 6 5 6 6 5 4 6 5 5 5 7 7 7 8 9 9 11 11 12 10 9 9 11 11 11 10 9 8 8
5 4 3 4 3 3 5 9 9 10 8 9 10 11 14 13 13 13 12 8 5 6 6 7 7 8 7 7 5 6 7 7 8 8 9 8 7 6 5 6 7 7 6 5 7 9 9 5 4 5 5 5 5 5 5 5 2 4 5 4 4 6 4 4 4 3 4 4 5 5 6 7 7 7 8 10 9 9 8 11 13 11 8 8 6 6 7
3 3 3 5 5 2 4 4 3 3 3 7 10 10 9 10 10 9 10 12 11 8 6 4 5 6 6 8 5 5 6 8 7 6 7 9 10 10 8 9 10 9 9 7 6 8 7 5 4 4 4 4 6 6 6 5 3 4 4 5 5 5 3 4 4 4 4 4 4 5 5 5 5 6 5 7 11 13 11 9 12 14 12 9 9 10 8
3 3 2 3 2 1 3 1 3 1 1 6 5 5 4 5 7 8 9 6 7 8 5 5 3 4 4 6 6 7 7 6 7 8 6 5 6 8 8 6 8 10 11 9 8 9 9 7 6 5 4 4 5 7 7 7 5 4 4 4 6 5 4 4 4 5 4 4 4 5 4 4 5 5 5 6 5 5 7 9 10 13 13 11 10 11 13
1 2 1 2 1 2 3 2 2 6 4 5 6 6 8 8 8 7 8 8 6 7 8 8 7 5 5 6 5 6 6 5 6 7 6 6 7 6 7 6 7 7 8 7 7 7 7 8 8 6 5 4 4 5 6 6 6 5 4 4 6 6 4 4 4 5 5 5 5 5 5 5 5 5 6 6 6 4 1 3 3 9 12 13 12 13 13
10 9 7 2 0 4 8 5 8 12 12 12 10 9 11 10 10 8 7 6 8 8 8 8 9 10 7 8 6 6 7 7 7 5 4 5 5 5 6 7 8 6 6 6 6 6 6 6 6 6 6 4 5 4 4 5 4 5 5 5 5 5 4 4 4 4 5 5 5 5 5 5 5 5 5 5 5 5 5 3 1 2 3 4 9 12 13
10 10 9 4 5 7 11 8 4 7 9 9 9 7 8 8 8 5 4 5 6 6 7 7 7 8 7 5 8 5 5 8 6 4 4 5 6 7 8 6 6 6 6 6 5 4 5 5 5 5 5 3 2 3 3 3 3 4 5 5 4 5 7 6 4 5 4 4 4 4 4 5 5 6 6 5 5 6 7 7 7 6 2 2 2 2 5
8 9 9 6 4 6 7 6 6 4 5 7 8 8 6 4 5 7 8 9 9 8 5 7 9 11 12 11 9 12 10 10 10 9 7 7 7 7 8 9 8 7 6 5 4 4 5 5 6 7 7 3 3 3 3 2 3 4 4 6 6 4 4 5 5 5 4 4 4 4 5 5 5 5 4 5 5 5 5 6 6 6 4 2 1 3 5
10 8 7 4 4 4 5 3 5 7 7 6 4 6 8 8 7 5 5 5 6 7 8 8 6 6 9 11 9 10 10 11 12 13 12 9 7 8 9 9 9 9 8 6 4 4 5 6 6 8 8 3 3 3 4 3 2 3 3 4 6 5 3 3 3 3 4 4 3 4 4 3 4 4 4 5 3 5 4 6 6 5 6 6 5 5 4
9 7 6 3 6 7 6 7 7 7 8 9 10 7 8 9 9 7 7 8 8 8 8 9 10 8 7 8 8 8 11 13 14 13 11 9 7 6 6 7 8 7 4 4 4 5 6 6 6 8 8 4 5 5 5 4 3 4 4 4 4 5 5 3 3 3 3 4 4 4 4 4 4 4 5 5 5 5 5 6 6 7 7 6 6 7 9
11 10 7 1 6 4 5 6 6 7 8 10 11 11 8 6 4 8 9 8 8 7 9 9 10 11 10 8 9 9 10 10 12 13 12 10 8 5 2 3 6 10 10 9 7 5 6 7 6 8 5 3 4 5 5 4 4 4 4 3 3 5 6 6 4 4 3 3 3 4 4 4 4 4 4 5 5 5 4 5 5 6 5 6 6 7 7
13 9 5 2 4 4 3 4 7 7 9 9 10 10 11 12 12 10 10 9 9 9 11 11 10 10 10 10 11 12 12 12 11 11 11 11 8 4 2 3 4 6 7 7 6 5 5 6 9 7 2 3 4 5 4 4 4 4 4 4 4 3 4 4 3 3 3 3 4 4 3 4 4 4 5 5 6 6 6 7 6 6 6 6 6 5 5
9 9 6 13 13 8 3 5 9 10 9 10 9 8 9 7 7 8 9 9 10 10 10 9 9 10 11 12 12 12 12 13 13 11 9 8 7 6 5 4 5 6 6 6 5 4 6 9 9 5 5 5 5 5 5 6 5 4 4 4 5 4 3 4 4 4 3 3 4 5 5 4 4 4 6 5 5 4 6 6 6 7 6 5 5 4 4
5 2 5 5 5 7 12 12 7 9 10 8 8 9 9 8 8 9 10 10 11 12 11 11 11 11 10 11 11 12 12 12 12 11 9 10 10 10 9 7 7 6 7 5 4 4 6 7 6 6 6 6 6 6 6 6 6 5 5 5 4 5 4 4 4 5 5 4 4 4 5 4 6 6 4 4 5 6 5 6 5 6 6 6 5 5 6
6 7 7 8 7 8 8 9 10 9 9 10 9 9 9 10 10 10 11 12 12 13 13 14 13 12 12 11 11 11 10 11 12 13 13 12 11 10 9 10 9 8 8 6 5 6 7 6 5 6 7 7 7 7 6 7 7 7 6 6 6 5 5 4 5 6 6 7 6 6 6 6 6 5 4 6 6 5 5 5 6 6 7 7 6 6 7
9 9 6 5 6 6 8 9 8 9 10 11 11 11 10 10 11 12 12 11 11 11 12 14 15 15 14 13 13 12 13 13 13 13 12 11 10 9 9 10 9 10 10 10 4 5 4 4 4 7 6 7 7 7 7 6 7 7 7 6 6 5 4 5 5 5 4 5 6 6 6 6 6 4 5 5 6 6 7 7 7 7 8 8 7 8 6
8 9 10 10 9 9 10 10 10 11 12 12 12 13 13 11 10 10 11 11 11 11 12 12 13 13 14 13 13 13 13 12 12 12 12 11 8 10 10 9 7 9 8 10 3 5 5 5 7 10 7 5 6 7 8 7 6 6 5 6 5 5 5 5 5 5 5 4 5 5 4 4 5 6 5 7 7 7 8 8 8 8 8 8 7 8 7
7 8 9 10 12 12 12 11 10 11 13 16 14 11 12 14 12 12 12 12 12 13 13 12 13 13 14 14 14 14 14 12 13 14 13 12 10 11 11 7 8 5 7 6 5 6 5 8 10 8 6 6 6 6 7 7 7 5 5 5 5 4 3 4 3 3 3 4 3 5 5 6 6 6 6 6 7 8 8 8 9 9 9 9 8 8 7
7 6 6 8 9 11 12 13 12 10 10 13 14 15 14 15 15 14 13 12 12 12 13 13 14 14 14 14 14 14 14 12 13 12 12 13 10 9 11 7 5 5 7 5 6 5 6 6 7 6 6 7 7 6 6 6 6 4 4 4 4 4 4 3 4 2 2 3 4 5 5 5 5 7 7 6 6 7 7 8 9 8 7 7 10 9 8
7 6 7 7 7 9 9 10 11 11 11 11 12 14 14 13 13 14 14 14 12 11 12 12 13 12 13 14 14 14 13 13 12 12 13 12 9 9 9 6 5 5 4 5 5 5 6 9 6 4 5 5 5 5 4 5 5 3 3 3 3 2 2 2 3 4 4 4 5 4 4 4 5 5 5 6 7 7 7 6 6 8 7 7 7 7 7
8 7 7 6 8 7 8 9 10 10 10 11 11 12 11 11 12 12 13 14 14 14 13 13 13 14 14 14 14 15 15 14 12 11 9 8 9 8 8 9 2 2 4 4 4 5 7 6 5 5 5 5 5 5 5 5 4 3 3 3 3 3 3 3 3 4 4 4 4 5 5 4 5 6 6 7 7 8 8 9 9 10 8 7 6 6 6
9 7 8 8 8 8 8 9 9 10 10 10 10 9 10 10 10 10 11 11 12 12 13 13 15 15 15 14 13 13 12 12 9 7 5 5 6 6 7 6 5 4 9 8 6 6 5 5 5 5 5 6 6 7 7 4 3 3 3 2 2 3 3 3 2 2 1 2 3 4 3 5 6 7 7 7 8 8 10 10 11 10 7 8 8 7 7
8 8 8 8 8 7 7 8 8 10 10 10 9 9 9 7 6 6 8 9 10 10 10 10 11 12 11 10 10 10 9 6 5 8 6 4 2 2 3 6 6 5 10 7 6 5 5 5 5 5 9 8 6 9 8 4 3 1 1 2 2 3 2 3 3 2 5 6 6 6 6 8 9 10 9 9 11 12 13 12 9 7 8 7 5 5 5
10 9 9 9 10 9 8 8 8 9 10 10 8 8 8 5 4 5 6 7 8 9 8 8 8 9 9 9 7 6 6 6 5 5 5 6 2 1 2 2 6 7 10 6 5 5 5 6 5 8 11 10 9 8 4 3 2 1 1 2 3 3 5 5 4 5 7 6 8 8 8 7 9 9 10 11 10 10 9 9 9 9 8 7 5 5 5
11 10 11 11 12 10 9 8 9 10 10 10 10 10 10 8 8 7 5 6 7 8 7 7 7 7 7 8 7 5 3 3 3 4 4 5 6 4 5 4 6 5 6 7 4 5 5 6 8 12 9 10 10 9 6 5 6 5 4 4 4 4 4 5 6 5 5 6 6 6 4 6 7 8 8 8 8 10 9 9 8 5 5 5 5 6 6
11 12 11 10 10 9 9 8 9 8 8 7 7 8 9 9 10 7 6 7 8 7 7 7 7 8 9 9 9 9 5 2 3 3 1 3 2 4 6 4 4 5 7 7 4 5 5 10 11 10 10 10 9 7 7 7 6 6 7 7 7 7 8 8 8 9 8 8 8 8 7 7 7 6 6 6 7 6 5 5 5 5 4 4 4 5 5
10 10 10 9 9 8 9 8 7 6 6 6 8 8 8 9 8 6 6 6 6 7 7 7 8 9 8 9 8 7 7 6 3 2 2 4 4 4 5 6 6 7 5 4 4 5 5 6 8 10 10 10 9 5 5 5 6 6 6 7 7 6 6 6 6 5 6 6 6 7 6 6 5 5 6 6 5 5 6 5 5 5 4 5 5 5 5
9 8 7 8 8 7 6 7 6 6 7 7 7 8 7 8 8 6 7 6 7 4 5 5 6 7 9 9 8 7 5 5 6 4 4 4 5 4 4 4 6 8 7 5 6 6 11 11 11 11 11 9 6 6 6 6 6 6 5 5 5 5 5 5 5 5 5 5 5 5 5 5 5 5 4 4 4 4 4 4 5 4 3 4 4 5 5
8 7 7 6 5 5 6 7 7 7 6 8 9 6 9 10 8 7 7 8 10 6 5 6 8 8 7 7 7 5 6 6 4 3 6 5 5 5 5 6 9 9 6 4 5 5 10 13 12 12 11 8 5 5 5 5 6 6 5 5 5 5 4 4 4 4 4 5 4 4 4 4 4 4 4 4 3 3 3 4 3 3 3 3 3 3 3
5 4 4 4 5 5 5 4 5 6 6 7 6 7 7 7 6 6 7 7 7 7 6 5 5 5 6 5 5 5 5 6 6 5 5 5 6 6 6 6 6 8 8 5 5 5 7 11 11 11 8 6 6 6 6 6 6 5 5 6 5 5 5 5 6 7 6 5 5 4 4 4 4 3 3 3 3 3 3 3 3 4 5 4 3 3 3
5 5 4 4 4 4 4 3 3 5 5 6 6 6 6 5 5 6 6 7 7 7 7 6 5 5 5 6 5 6 5 5 5 7 5 5 5 6 7 6 6 6 6 6 5 5 5 5 6 7 7 6 6 6 6 6 5 5 5 5 5 5 5 5 5 5 5 4 4 4 3 3 3 2 2 2 2 2 2 2 3 3 3 3 3 3 3
6 4 3 3 4 4 4 3 4 4 4 5 5 5 5 5 5 5 5 8 6 6 6 7 6 6 6 5 5 5 6 6 6 5 5 5 5 4 5 7 5 6 6 5 5 5 5 5 6 7 7 5 5 5 5 7 5 5 5 5 5 5 5 4 4 4 4 4 3 3 3 3 2 2 2 2 2 2 2 2 2 2 2 2 2 3 3
Wind_Direction
203 356 146 151 165 194 196 191 191 188 191 192 199 218 229 213 203 233 239 178 213 225 242 229 223 177 196 209 223 217 213 232 277 295 300 307 298 305 310 283 270 258 274 275 275 268 264 282 268 257 250 242 237 244 242 224 197 206 187 182 203 210 209 218 222 219 212 211 212 214 208 204 202 202 200 198 193 190 192 195 187 185 182 179 169 182 179
211 230 217 171 169 193 189 188 193 189 190 199 205 219 224 214 225 233 239 142 222 213 206 211 223 207 200 224 301 67 146 237 224 256 280 266 270 276 284 286 292 271 254 260 253 262 280 271 268 264 259 250 237 234 237 208 207 200 174 202 191 213 221 224 219 209 208 202 199 194 197 194 204 197 197 195 187 186 190 181 172 169 168 172 173 174 174
219 228 238 217 177 180 194 191 186 182 192 209 219 229 233 223 242 249 243 224 243 228 195 211 229 226 13 346 273 242 244 278 268 261 266 264 251 240 248 263 266 269 270 255 254 243 243 238 234 235 235 230 222 231 228 207 213 197 183 199 214 216 225 214 213 209 201 199 186 196 200 203 200 197 195 186 182 180 175 168 163 162 161 168 182 181 179
220 224 218 206 200 188 192 183 166 172 184 205 216 223 223 204 220 232 236 241 254 228 147 201 228 235 225 247 207 222 229 227 230 238 252 252 251 245 247 245 249 264 259 251 242 241 237 234 233 233 235 228 225 247 208 211 208 185 193 199 215 222 228 213 206 210 200 191 193 203 199 204 198 196 183 181 186 180 173 175 173 160 174 181 179 182 177
220 216 207 191 152 173 215 194 177 185 196 204 212 219 223 211 220 231 224 228 238 194 148 199 213 209 209 238 224 208 207 218 205 215 227 241 249 241 248 259 259 253 249 240 237 248 254 255 248 232 196 196 230 234 201 217 170 186 205 205 215 222 220 208 211 203 192 193 203 204 203 197 192 185 187 189 188 182 189 181 165 187 196 182 194 188 185
226 202 163 140 175 211 212 194 195 190 197 205 211 219 222 218 214 233 234 246 104 149 189 208 209 203 211 226 243 163 202 223 242 243 241 241 242 245 238 240 250 257 257 252 240 236 244 252 246 233 180 209 241 213 187 157 178 196 202 213 210 221 215 215 209 201 197 197 204 204 194 193 188 190 192 198 190 183 170 176 192 196 196 203 201 203 200
216 118 124 181 216 224 219 214 205 203 206 209 220 237 240 227 227 241 248 235 188 180 192 212 204 207 224 238 247 192 216 208 226 233 227 231 240 255 271 266 246 232 238 249 255 256 253 253 257 241 249 232 246 205 168 178 196 191 204 213 207 216 219 217 205 203 200 199 205 198 194 191 191 199 199 191 187 188 184 189 191 195 194 197 202 201 201
63 151 171 215 229 221 243 176 167 193 210 215 215 245 244 228 218 221 229 233 209 120 228 210 198 197 241 284 274 250 237 218 217 220 227 218 207 232 239 245 264 275 264 251 250 253 228 198 220 203 226 205 182 222 174 198 190 199 197 214 226 217 224 217 209 206 200 202 203 197 193 192 196 203 200 195 193 185 185 194 195 186 201 193 191 191 188
202 162 188 213 12 327 112 137 181 166 194 199 196 219 232 223 228 232 253 255 221 222 206 126 143 139 114 256 257 253 242 230 221 217 221 175 201 218 233 227 239 240 249 258 264 271 281 272 252 236 233 189 181 168 177 200 184 194 195 220 227 221 225 222 213 207 203 201 201 198 193 195 204 205 199 199 196 179 191 197 193 197 197 191 185 181 185
200 167 197 207 227 238 222 210 198 196 206 204 196 285 273 169 189 211 227 236 226 223 161 163 148 99 117 250 250 244 246 161 179 216 205 195 213 220 228 233 243 253 257 263 270 279 286 289 262 252 258 151 161 194 219 193 184 197 202 229 227 218 223 221 217 207 203 200 201 198 195 204 208 206 202 201 201 188 196 194 199 199 184 185 188 188 184
174 229 207 201 210 232 229 223 193 169 124 103 106 190 252 237 195 209 215 232 229 207 156 178 130 136 203 239 244 246 104 158 187 194 208 209 216 227 233 228 237 245 252 262 286 302 259 268 267 256 230 151 172 222 233 216 195 204 221 235 228 217 223 216 206 203 205 203 202 200 204 212 204 201 201 201 188 181 204 197 203 178 186 187 191 195 196
230 204 222 231 215 248 264 120 147 149 139 117 107 211 245 250 192 207 204 224 224 192 165 160 175 183 221 236 247 101 169 203 182 190 208 216 225 239 234 239 245 273 314 325 296 283 269 258 265 274 169 163 199 220 235 207 200 221 232 234 232 225 227 199 187 191 197 206 208 204 210 204 198 204 182 177 188 189 197 194 191 189 190 192 191 200 192
219 218 245 282 269 279 275 175 157 139 131 134 180 215 235 278 134 192 198 219 210 153 170 172 197 212 218 232 174 163 172 200 221 222 252 186 206 230 247 255 301 283 280 240 248 252 251 255 261 248 168 184 212 221 223 203 223 228 234 238 236 225 200 183 187 194 194 199 206 212 205 198 185 181 184 190 179 186 192 190 186 192 195 194 194 194 195
223 211 222 238 280 248 193 249 156 138 124 196 205 220 360 3 170 209 192 198 165 167 181 193 210 221 224 243 203 154 143 192 294 17 357 17 319 212 195 215 220 235 247 249 254 254 252 263 262 237 188 212 226 224 217 224 227 231 236 236 220 194 191 194 191 194 198 203 201 201 192 180 184 193 184 176 182 185 186 188 193 195 192 194 196 193 195
286 201 217 194 233 4 4 78 50 176 166 285 327 309 324 13 347 345 312 161 180 172 198 204 214 227 228 231 241 85 14 10 329 315 325 320 302 301 307 267 172 141 248 243 252 258 258 237 230 217 191 217 224 219 226 236 237 240 245 236 208 198 194 196 202 202 201 196 197 189 188 187 188 192 177 178 180 179 188 194 196 197 196 194 193 195 195
187 190 211 213 31 313 318 350 160 63 169 280 302 350 355 357 24 5 359 351 267 216 200 209 222 237 307 17 51 45 21 352 301 305 312 329 336 317 272 243 269 269 263 268 278 277 255 246 231 215 194 225 226 218 234 237 237 254 266 224 197 205 211 211 208 206 199 195 190 187 188 183 187 186 186 188 181 183 184 190 197 202 205 195 195 197 199
176 188 124 208 250 234 299 53 45 345 341 334 302 8 60 38 14 355 27 1 350 358 13 36 34 15 354 266 62 118 206 268 284 304 302 306 301 296 301 304 313 316 288 285 296 298 267 227 230 211 202 217 237 240 255 273 265 247 233 206 198 219 223 219 211 205 187 188 189 191 189 182 188 191 190 182 189 191 185 190 196 206 205 197 203 206 200
136 68 115 314 45 23 350 24 28 29 12 15 28 30 36 23 8 13 29 358 14 12 3 28 360 19 343 18 14 8 340 329 311 321 325 317 312 293 288 295 292 276 283 277 287 294 303 227 219 196 202 198 221 233 286 286 247 237 220 211 221 228 225 214 207 182 186 195 196 193 188 188 194 192 187 187 193 190 193 198 198 202 203 197 206 205 209
130 175 41 44 46 39 32 46 40 42 29 20 21 35 35 25 14 14 16 13 17 18 34 36 29 19 355 2 356 346 339 317 300 300 294 297 283 289 305 291 334 322 333 328 319 312 305 307 349 243 197 212 233 261 277 285 286 237 221 221 235 239 232 222 199 187 192 194 188 188 188 190 193 191 188 190 195 196 195 200 203 203 201 200 204 206 211
110 76 18 14 102 75 53 41 27 21 17 13 24 48 59 48 37 36 15 13 20 13 22 17 24 8 12 6 353 350 358 348 333 328 323 316 324 320 304 309 345 328 340 320 309 312 301 310 346 331 315 264 264 271 273 271 259 234 235 232 236 241 232 214 207 198 203 193 186 189 192 189 192 194 197 194 198 201 196 197 196 205 203 205 205 206 211
105 133 25 5 122 50 31 19 21 21 13 16 17 24 26 23 24 21 27 34 28 26 9 11 15 14 0 6 351 340 335 346 344 335 320 312 302 303 322 326 348 331 320 316 303 298 292 311 331 330 327 314 310 306 297 297 258 233 246 245 247 253 245 221 223 210 207 195 201 196 197 201 208 203 195 196 203 211 211 202 204 202 204 212 211 211 207
66 56 25 353 73 357 22 34 13 354 358 25 23 17 14 11 11 6 5 14 43 40 17 11 12 7 346 348 4 344 334 324 319 319 320 318 319 313 301 308 313 315 303 281 295 297 292 311 322 321 320 320 316 314 312 310 285 248 258 259 257 257 250 240 236 212 215 214 212 210 207 206 207 221 222 214 209 207 213 206 216 223 211 218 204 195 202
120 126 105 86 87 51 65 37 326 317 1 37 28 18 5 356 357 356 5 354 1 17 6 5 20 351 346 330 343 336 328 320 313 304 308 318 320 322 335 339 325 324 316 315 299 293 297 330 327 326 324 325 328 323 333 323 305 271 278 271 265 264 251 245 235 224 218 220 218 219 219 216 216 219 222 226 222 220 217 203 205 213 216 213 184 186 190
106 148 147 130 106 124 238 236 242 249 190 55 35 19 12 358 348 344 357 6 357 343 355 353 349 338 325 320 327 317 317 308 320 322 315 301 297 303 314 311 302 311 312 316 318 311 320 330 327 334 343 352 343 329 337 336 333 305 279 265 267 265 252 245 231 223 216 221 219 217 222 218 219 220 223 228 234 233 236 222 208 207 212 205 189 184 190
192 213 192 188 166 224 229 215 47 46 21 24 29 11 4 357 352 356 353 359 2 348 346 349 348 348 336 322 321 309 307 305 308 311 312 308 305 310 300 306 298 289 292 297 301 308 315 324 328 338 339 350 0 339 343 341 345 329 301 282 275 280 279 260 243 225 212 212 211 208 222 219 223 216 221 221 203 193 32 3 246 226 215 208 197 190 188
35 5 332 287 105 30 13 41 57 31 33 25 27 21 11 5 354 358 3 3 6 3 357 346 350 352 356 333 329 320 308 301 303 307 311 316 315 310 312 307 305 300 293 296 297 306 316 323 323 325 333 344 355 345 334 339 329 312 301 289 280 281 282 268 248 240 229 224 221 219 211 206 211 218 228 224 218 200 177 166 76 26 1 250 218 198 193
27 6 359 37 62 43 32 34 12 33 27 30 31 22 15 2 357 8 16 28 21 4 357 356 354 336 335 337 325 317 310 307 317 312 302 315 323 326 315 308 305 300 297 300 302 316 325 323 326 325 319 324 323 314 315 308 299 300 296 286 276 274 280 277 249 242 231 227 228 225 220 221 218 212 207 201 198 194 196 183 172 168 168 40 25 183 179
31 13 15 56 22 356 339 9 49 20 34 26 13 5 0 350 7 19 12 3 3 360 358 8 354 350 341 341 345 334 338 339 331 326 329 330 330 319 313 314 315 307 299 292 302 324 330 326 322 320 310 312 331 322 316 281 294 294 293 297 288 276 266 268 262 254 238 231 223 223 226 226 218 214 208 196 194 193 184 181 174 155 99 90 64 66 129
1 354 339 30 39 313 310 342 9 19 8 6 351 354 355 0 5 12 12 3 337 334 340 348 357 344 334 326 339 335 330 324 325 326 326 325 324 320 315 317 311 303 299 308 328 342 337 331 324 315 304 331 327 320 323 313 282 287 295 299 298 289 270 250 248 250 250 241 231 228 226 217 203 205 201 197 192 183 177 176 169 157 140 129 119 90 79
331 320 309 348 1 349 0 17 359 347 351 355 355 357 12 2 354 359 351 349 346 341 335 333 329 328 328 315 324 334 325 317 312 309 309 312 311 307 314 309 302 280 270 300 339 338 331 317 310 297 294 332 325 312 309 300 277 282 277 284 289 294 301 282 253 248 241 235 237 225 214 199 203 193 193 192 185 179 173 173 161 153 150 158 155 151 149
302 290 258 161 14 351 25 11 355 351 348 353 349 340 354 24 8 337 337 336 340 331 328 327 319 315 317 316 314 310 302 299 300 305 306 308 310 307 297 322 331 319 316 305 309 312 303 297 284 276 283 307 302 306 306 292 287 291 282 264 261 263 273 279 261 244 233 231 218 214 211 203 198 187 189 179 175 173 170 158 155 162 163 163 164 159 149
291 281 204 96 12 352 9 19 353 351 346 337 344 354 352 346 342 335 327 328 325 323 318 316 313 312 313 315 313 308 304 300 295 293 298 302 303 307 273 228 252 255 269 279 283 283 284 285 281 274 315 304 281 284 286 286 283 278 269 270 268 259 245 242 237 237 229 225 213 217 212 203 209 198 192 188 184 178 167 163 165 165 168 166 163 153 148
342 356 354 349 345 351 18 19 350 335 340 335 331 324 323 321 314 314 314 314 315 314 311 303 307 313 317 314 309 307 304 300 296 292 290 295 306 316 318 282 257 253 260 260 257 263 262 262 273 311 313 295 288 276 270 262 265 260 265 258 256 253 247 234 225 222 218 219 214 213 206 209 206 202 206 194 186 174 169 169 163 161 162 156 137 129 139
6 326 308 325 308 309 321 322 334 317 316 313 313 314 315 316 317 313 313 310 307 307 308 309 309 309 306 305 304 305 306 307 305 308 312 313 314 315 315 310 286 275 264 263 268 261 262 259 279 294 302 301 291 284 273 271 260 255 254 255 246 244 235 232 221 215 211 210 214 211 207 203 201 202 194 189 180 174 171 164 158 153 140 126 128 124 124
311 290 282 273 282 291 294 297 306 308 307 307 308 310 308 311 314 311 312 313 311 308 310 310 309 308 307 305 304 302 302 298 299 304 309 310 310 311 313 309 303 297 292 271 255 269 263 282 291 295 301 299 290 282 276 269 269 264 259 249 244 238 234 222 217 210 211 210 196 197 197 197 200 189 178 173 170 165 154 152 151 146 143 137 131 118 108
332 324 316 306 306 300 301 299 295 295 298 299 299 302 301 303 308 311 312 307 305 306 306 308 310 310 308 310 309 309 308 305 303 300 301 305 309 313 312 301 297 298 297 301 274 267 311 304 300 299 296 296 296 290 282 279 274 268 262 257 250 241 233 223 220 217 210 193 196 198 198 187 172 167 166 160 152 148 149 146 147 144 144 140 137 129 120
332 322 319 316 315 316 313 311 312 315 310 306 305 307 305 307 305 306 308 307 308 307 306 305 305 305 303 304 302 299 297 299 299 302 304 309 317 312 303 297 290 285 295 294 329 7 332 317 322 320 304 273 274 277 280 275 275 273 267 255 248 239 227 223 216 203 209 199 189 180 164 158 158 158 157 157 154 151 147 147 141 139 135 136 131 129 124
321 317 311 314 315 317 314 309 312 313 312 310 308 303 304 308 311 311 309 308 309 309 307 303 298 297 298 299 296 294 295 297 298 300 304 311 318 309 299 288 290 293 282 278 348 345 315 323 327 324 316 296 279 278 279 279 268 271 259 255 242 237 227 219 213 206 197 193 184 175 175 169 165 160 162 156 153 151 149 146 145 145 144 142 136 125 123
317 314 306 305 306 307 306 309 312 307 306 301 301 304 306 308 309 311 308 307 305 304 302 301 302 301 299 299 296 294 295 298 299 302 306 307 306 290 280 281 261 254 252 300 318 300 305 313 314 312 307 307 304 297 290 289 276 252 252 250 246 231 228 216 210 203 196 180 181 182 177 173 166 163 159 157 149 143 145 144 142 140 137 138 140 137 131
298 299 293 294 292 291 293 293 295 294 293 292 294 294 298 301 304 307 306 305 303 304 299 300 299 295 297 297 296 296 300 303 305 305 303 302 299 292 288 265 210 240 265 292 293 295 301 308 305 296 292 292 300 302 299 293 285 262 249 236 230 217 210 203 189 189 190 188 185 184 172 173 163 158 149 144 143 143 139 137 134 141 125 110 116 119 121
292 294 291 287 281 280 278 280 281 281 284 285 282 282 287 290 293 296 295 297 302 308 303 300 297 291 288 288 288 290 296 297 299 296 299 297 291 288 289 298 27 66 311 318 304 300 309 312 314 308 309 308 303 303 305 288 277 255 242 222 199 195 187 191 190 195 189 190 182 180 174 155 148 148 148 144 145 144 145 142 145 139 133 121 117 108 106
295 296 293 290 283 280 278 279 280 281 277 275 278 283 283 279 279 281 290 298 296 295 297 296 291 292 295 298 298 296 294 293 297 299 304 300 303 307 302 302 21 354 328 334 323 323 318 325 328 323 321 317 307 304 299 288 276 248 224 190 183 176 167 166 158 168 164 153 153 153 149 152 147 147 143 138 137 139 139 134 125 119 125 122 122 133 134
303 305 299 293 289 289 286 286 286 284 286 287 285 284 285 284 277 284 290 293 294 296 297 301 308 313 315 315 311 306 306 314 325 304 300 283 266 300 280 301 338 338 339 337 332 332 329 332 332 329 328 325 310 310 305 295 280 274 318 103 139 119 123 120 113 111 100 113 141 137 140 143 143 144 140 133 121 123 118 128 131 131 126 125 113 101 94
303 303 299 302 304 304 309 306 300 302 303 298 304 308 306 297 287 295 299 300 308 309 311 316 318 321 323 323 327 323 332 343 339 319 316 299 238 283 21 342 323 340 349 340 337 338 334 335 337 338 340 346 343 345 338 317 332 357 2 43 81 85 98 96 110 114 113 107 109 125 128 138 140 143 140 130 123 108 93 87 92 99 104 98 94 92 92
303 300 303 302 305 314 316 313 312 309 303 302 310 309 312 311 311 309 309 315 318 318 323 323 324 324 325 327 316 304 317 316 317 326 336 320 321 331 32 32 335 342 351 352 346 341 339 343 349 354 6 7 14 21 19 10 6 18 8 16 41 71 90 89 94 107 109 115 115 105 114 98 93 106 74 106 131 105 110 107 95 95 95 99 111 130 135
295 295 292 302 305 303 298 298 295 297 302 307 315 320 325 326 323 318 318 319 330 323 320 322 327 329 333 330 319 317 303 314 355 8 346 308 310 302 349 0 335 3 359 4 355 349 338 349 357 5 14 27 31 38 41 38 34 41 41 37 28 25 29 29 41 38 50 63 75 64 67 72 65 63 79 70 63 78 79 80 91 100 111 107 115 130 125
290 292 291 286 278 281 298 304 299 303 315 345 345 330 325 328 327 320 310 306 314 321 330 330 331 332 341 346 339 340 335 320 309 355 23 331 338 335 344 354 356 4 12 9 8 4 360 352 359 10 21 30 37 36 29 37 44 53 49 57 56 54 53 48 46 56 61 64 60 64 66 63 61 79 77 89 91 97 122 121 125 128 126 131 129 131 133
297 296 299 302 292 289 312 319 333 344 351 345 326 320 316 328 333 334 341 342 335 341 348 344 347 342 350 357 360 354 342 314 310 312 46 13 334 348 345 360 1 4 3 4 7 12 14 13 17 21 24 23 26 36 32 43 37 34 37 36 43 44 51 53 48 51 67 72 73 83 88 90 96 97 96 106 112 112 116 126 133 122 121 135 140 146 147
310 309 313 311 312 316 343 351 353 346 343 336 335 319 330 330 334 343 351 350 347 347 350 352 354 352 353 357 0 352 355 358 16 324 345 7 334 339 345 353 357 1 358 355 357 347 11 16 20 23 23 26 24 28 34 37 36 39 36 36 37 38 41 44 46 58 63 64 69 67 78 84 92 101 104 101 109 107 101 110 113 123 133 135 115 113 127
318 325 333 343 344 339 349 356 356 344 329 330 329 325 331 336 345 348 354 347 342 335 338 343 351 347 348 342 354 352 348 355 357 355 345 345 352 355 352 353 354 360 2 0 357 357 3 13 17 19 19 19 21 25 28 34 35 37 38 35 35 39 40 44 52 55 62 62 60 65 67 69 71 80 91 98 100 114 112 120 119 124 127 129 142 144 142
333 334 344 348 333 325 337 1 349 332 324 324 323 329 337 345 342 339 347 349 344 343 337 333 347 356 349 343 351 348 352 349 352 4 359 353 0 1 1 356 353 358 358 3 359 354 353 5 7 12 10 16 20 23 26 25 27 31 27 31 26 26 28 31 31 32 37 41 51 51 54 62 74 83 86 98 96 104 103 108 106 130 135 149 148 153 145
323 311 329 342 326 324 324 341 354 339 325 328 327 335 336 337 339 334 345 358 357 338 331 329 329 357 0 340 348 348 352 354 349 348 356 355 356 349 352 358 352 349 351 352 351 356 359 359 9 18 20 16 16 20 19 25 27 28 27 28 26 25 28 28 24 30 28 31 32 41 43 41 54 69 72 71 86 94 108 125 132 133 140 138 124 127 125